Location: Cossonay
(46.5833°N, 6.4167°E)
Time: 22:11:07
(UTC+00:00)

CBERS-1 - Pass Details

Date: 08 October 2020
Orbit: 770 x 777 km, 98.6° (Epoch: 22 October)

Event Time Altitude Azimuth Distance (km) Brightness Sun altitude
Rises 02:48:32 0° 7° (N) 3,261 7.7 -30.0°
Reaches altitude 10° 02:50:59 10° 359° (N) 2,330 6.7 -29.6°
Enters shadow 02:53:04 22° 344° (NNW) 1,632 5.7 -29.3°
